Location: Malvern Link
(52.1333°N, 2.3000°W)
Time: 14:51:19
(UTC+00:00)

SO-50 - Pass Details

Date: 09 July 2022
Orbit: 585 x 698 km, 64.6° (Epoch: 11 August)

Event Time Altitude Azimuth Distance (km) Brightness Sun altitude
Exits shadow 21:18:21 - 169° (S) 2,575 ? -6.3°
Reaches altitude 10° 21:20:03 10° 157° (SSE) 2,069 ? -6.4°
Maximum altitude 21:23:19 19° 113° (ESE) 1,583 ? -6.7°
Drops below altitude 10° 21:26:40 10° 69° (ENE) 2,125 ? -7.1°
Sets 21:29:36 0° 52° (NE) 3,062 ? -7.4°
